Time,TemperatureF,DewpointF,PressureIn,WindDirection,WindDirectionDegrees,WindSpeedMPH,WindSpeedGustMPH,Humidity,HourlyPrecipIn,Conditions,Clouds,dailyrainin,SoftwareType,DateUTC
2013-02-01 00:04:00,34.0,-99.9,29.36,West,265,30.0,41.0,-999,-99.99,,,-99.99,,2013-02-01 05:04:00,
2013-02-01 00:12:00,34.0,-99.9,29.36,West,265,30.0,41.0,-999,-99.99,,,-99.99,,2013-02-01 05:12:00,
2013-02-01 00:22:00,34.0,-99.9,29.36,West,265,30.0,41.0,-999,-99.99,,,-99.99,,2013-02-01 05:22:00,
2013-02-01 00:30:00,33.0,-99.9,29.38,West,276,28.0,35.0,-999,-99.99,,,-99.99,,2013-02-01 05:30:00,
2013-02-01 00:42:00,33.0,-99.9,29.37,West,277,30.0,41.0,-999,-99.99,,,-99.99,,2013-02-01 05:42:00,
2013-02-01 00:52:00,33.0,-99.9,29.37,West,277,30.0,41.0,-999,-99.99,,,-99.99,,2013-02-01 05:52:00,
2013-02-01 01:02:00,33.0,-99.9,29.38,West,276,28.0,35.0,-999,-99.99,,,-99.99,,2013-02-01 06:02:00,
2013-02-01 01:12:00,33.0,-99.9,29.38,West,276,28.0,35.0,-999,-99.99,,,-99.99,,2013-02-01 06:12:00,
2013-02-01 01:22:00,33.0,-99.9,29.38,West,276,28.0,35.0,-999,-99.99,,,-99.99,,2013-02-01 06:22:00,
2013-02-01 01:30:00,32.0,-99.9,29.41,West,268,24.0,32.0,-999,-99.99,,,-99.99,,2013-02-01 06:30:00,
2013-02-01 01:42:00,33.0,-99.9,29.39,West,265,27.0,41.0,-999,-99.99,,,-99.99,,2013-02-01 06:42:00,
2013-02-01 01:52:00,33.0,-99.9,29.39,West,265,27.0,41.0,-999,-99.99,,,-99.99,,2013-02-01 06:52:00,
2013-02-01 02:02:00,32.0,-99.9,29.41,West,268,24.0,32.0,-999,-99.99,,,-99.99,,2013-02-01 07:02:00,
2013-02-01 02:12:00,32.0,-99.9,29.41,West,268,24.0,32.0,-999,-99.99,,,-99.99,,2013-02-01 07:12:00,
2013-02-01 02:22:00,32.0,-99.9,29.41,West,268,24.0,32.0,-999,-99.99,,,-99.99,,2013-02-01 07:22:00,
2013-02-01 02:30:00,31.0,-99.9,29.43,West,273,23.0,27.0,-999,-99.99,,,-99.99,,2013-02-01 07:30:00,
2013-02-01 02:42:00,32.0,-99.9,29.43,West,272,25.0,29.0,-999,-99.99,,,-99.99,,2013-02-01 07:42:00,
2013-02-01 02:52:00,32.0,-99.9,29.43,West,272,25.0,29.0,-999,-99.99,,,-99.99,,2013-02-01 07:52:00,
2013-02-01 03:01:00,31.0,-99.9,29.43,West,273,23.0,27.0,-999,-99.99,,,-99.99,,2013-02-01 08:01:00,
2013-02-01 03:11:00,31.0,-99.9,29.43,West,273,23.0,27.0,-999,-99.99,,,-99.99,,2013-02-01 08:11:00,
2013-02-01 03:22:00,31.0,-99.9,29.43,West,273,23.0,27.0,-999,-99.99,,,-99.99,,2013-02-01 08:22:00,
2013-02-01 03:30:00,31.0,-99.9,29.45,West,271,24.0,31.0,-999,-99.99,,,-99.99,,2013-02-01 08:30:00,
2013-02-01 03:42:00,31.0,-99.9,29.44,West,272,24.0,29.0,-999,-99.99,,,-99.99,,2013-02-01 08:42:00,
2013-02-01 03:52:00,31.0,-99.9,29.44,West,272,24.0,29.0,-999,-99.99,,,-99.99,,2013-02-01 08:52:00,
2013-02-01 04:02:00,31.0,-99.9,29.45,West,271,24.0,31.0,-999,-99.99,,,-99.99,,2013-02-01 09:02:00,
2013-02-01 04:11:00,31.0,-99.9,29.45,West,271,24.0,31.0,-999,-99.99,,,-99.99,,2013-02-01 09:11:00,
2013-02-01 04:22:00,31.0,-99.9,29.45,West,271,24.0,31.0,-999,-99.99,,,-99.99,,2013-02-01 09:22:00,
2013-02-01 04:30:00,31.0,-99.9,29.47,West,275,24.0,30.0,-999,-99.99,,,-99.99,,2013-02-01 09:30:00,
2013-02-01 04:42:00,31.0,-99.9,29.45,West,272,25.0,30.0,-999,-99.99,,,-99.99,,2013-02-01 09:42:00,
2013-02-01 04:52:00,31.0,-99.9,29.45,West,272,25.0,30.0,-999,-99.99,,,-99.99,,2013-02-01 09:52:00,
2013-02-01 05:01:00,31.0,-99.9,29.47,West,275,24.0,30.0,-999,-99.99,,,-99.99,,2013-02-01 10:01:00,
2013-02-01 05:11:00,31.0,-99.9,29.47,West,275,24.0,30.0,-999,-99.99,,,-99.99,,2013-02-01 10:11:00,
2013-02-01 05:21:00,31.0,-99.9,29.47,West,275,24.0,30.0,-999,-99.99,,,-99.99,,2013-02-01 10:21:00,
2013-02-01 05:30:00,30.0,-99.9,29.49,WSW,253,35.0,42.0,-999,-99.99,,,-99.99,,2013-02-01 10:30:00,
2013-02-01 05:43:00,30.0,-99.9,29.48,West,271,26.0,34.0,-999,-99.99,,,-99.99,,2013-02-01 10:43:00,
2013-02-01 05:53:00,30.0,-99.9,29.48,West,271,26.0,34.0,-999,-99.99,,,-99.99,,2013-02-01 10:53:00,
2013-02-01 06:02:00,30.0,-99.9,29.49,WSW,253,35.0,42.0,-999,-99.99,,,-99.99,,2013-02-01 11:02:00,
2013-02-01 06:11:00,30.0,-99.9,29.49,WSW,253,35.0,42.0,-999,-99.99,,,-99.99,,2013-02-01 11:11:00,
2013-02-01 06:22:00,30.0,-99.9,29.49,WSW,253,35.0,42.0,-999,-99.99,,,-99.99,,2013-02-01 11:22:00,
2013-02-01 06:30:00,29.0,-99.9,29.52,West,277,23.0,30.0,-999,-99.99,,,-99.99,,2013-02-01 11:30:00,
2013-02-01 06:42:00,30.0,-99.9,29.51,West,260,28.0,41.0,-999,-99.99,,,-99.99,,2013-02-01 11:42:00,
2013-02-01 06:53:00,30.0,-99.9,29.51,West,260,28.0,41.0,-999,-99.99,,,-99.99,,2013-02-01 11:53:00,
2013-02-01 07:03:00,29.0,-99.9,29.52,West,277,23.0,30.0,-999,-99.99,,,-99.99,,2013-02-01 12:03:00,
2013-02-01 07:12:00,29.0,-99.9,29.52,West,277,23.0,30.0,-999,-99.99,,,-99.99,,2013-02-01 12:12:00,
2013-02-01 07:23:00,29.0,-99.9,29.52,West,277,23.0,30.0,-999,-99.99,,,-99.99,,2013-02-01 12:23:00,
2013-02-01 07:30:00,29.0,-99.9,29.56,West,276,22.0,26.0,-999,-99.99,,,-99.99,,2013-02-01 12:30:00,
2013-02-01 07:42:00,29.0,-99.9,29.54,West,278,22.0,27.0,-999,-99.99,,,-99.99,,2013-02-01 12:42:00,
2013-02-01 07:52:00,29.0,-99.9,29.54,West,278,22.0,27.0,-999,-99.99,,,-99.99,,2013-02-01 12:52:00,
2013-02-01 08:02:00,29.0,-99.9,29.56,West,276,22.0,26.0,-999,-99.99,,,-99.99,,2013-02-01 13:02:00,
2013-02-01 08:12:00,29.0,-99.9,29.56,West,276,22.0,26.0,-999,-99.99,,,-99.99,,2013-02-01 13:12:00,
2013-02-01 08:22:00,29.0,-99.9,29.56,West,276,22.0,26.0,-999,-99.99,,,-99.99,,2013-02-01 13:22:00,
2013-02-01 08:30:00,27.0,-99.9,29.60,WNW,303,21.0,25.0,-999,-99.99,,,-99.99,,2013-02-01 13:30:00,
2013-02-01 08:43:00,28.0,-99.9,29.58,NW,309,17.0,22.0,-999,-99.99,,,-99.99,,2013-02-01 13:43:00,
2013-02-01 08:53:00,28.0,-99.9,29.58,NW,309,17.0,22.0,-999,-99.99,,,-99.99,,2013-02-01 13:53:00,
2013-02-01 09:04:00,27.0,-99.9,29.60,WNW,303,21.0,25.0,-999,-99.99,,,-99.99,,2013-02-01 14:04:00,
2013-02-01 09:12:00,27.0,-99.9,29.60,WNW,303,21.0,25.0,-999,-99.99,,,-99.99,,2013-02-01 14:12:00,
2013-02-01 09:22:00,27.0,-99.9,29.60,WNW,303,21.0,25.0,-999,-99.99,,,-99.99,,2013-02-01 14:22:00,
2013-02-01 09:30:00,27.0,-99.9,29.62,WNW,294,20.0,27.0,-999,-99.99,,,-99.99,,2013-02-01 14:30:00,
2013-02-01 09:43:00,27.0,-99.9,29.61,WNW,296,20.0,24.0,-999,-99.99,,,-99.99,,2013-02-01 14:43:00,
2013-02-01 09:53:00,27.0,-99.9,29.61,WNW,296,20.0,24.0,-999,-99.99,,,-99.99,,2013-02-01 14:53:00,
2013-02-01 10:03:00,27.0,-99.9,29.62,WNW,294,20.0,27.0,-999,-99.99,,,-99.99,,2013-02-01 15:03:00,
2013-02-01 10:12:00,27.0,-99.9,29.62,WNW,294,20.0,27.0,-999,-99.99,,,-99.99,,2013-02-01 15:12:00,
2013-02-01 10:22:00,27.0,-99.9,29.62,WNW,294,20.0,27.0,-999,-99.99,,,-99.99,,2013-02-01 15:22:00,
2013-02-01 10:30:00,28.0,-99.9,29.65,NW,312,20.0,24.0,-999,-99.99,,,-99.99,,2013-02-01 15:30:00,
2013-02-01 10:42:00,28.0,-99.9,29.64,WNW,295,21.0,26.0,-999,-99.99,,,-99.99,,2013-02-01 15:42:00,
2013-02-01 10:52:00,28.0,-99.9,29.64,WNW,295,21.0,26.0,-999,-99.99,,,-99.99,,2013-02-01 15:52:00,
2013-02-01 11:03:00,28.0,-99.9,29.65,NW,312,20.0,24.0,-999,-99.99,,,-99.99,,2013-02-01 16:03:00,
2013-02-01 11:12:00,28.0,-99.9,29.65,NW,312,20.0,24.0,-999,-99.99,,,-99.99,,2013-02-01 16:12:00,
2013-02-01 11:22:00,28.0,-99.9,29.65,NW,312,20.0,24.0,-999,-99.99,,,-99.99,,2013-02-01 16:22:00,
2013-02-01 11:30:00,28.0,-99.9,29.67,WNW,301,21.0,25.0,-999,-99.99,,,-99.99,,2013-02-01 16:30:00,
2013-02-01 11:43:00,28.0,-99.9,29.67,WNW,299,19.0,23.0,-999,-99.99,,,-99.99,,2013-02-01 16:43:00,
2013-02-01 11:53:00,28.0,-99.9,29.67,WNW,299,19.0,23.0,-999,-99.99,,,-99.99,,2013-02-01 16:53:00,
2013-02-01 12:03:00,28.0,-99.9,29.67,WNW,301,21.0,25.0,-999,-99.99,,,-99.99,,2013-02-01 17:03:00,
2013-02-01 12:12:00,28.0,-99.9,29.67,WNW,301,21.0,25.0,-999,-99.99,,,-99.99,,2013-02-01 17:12:00,
2013-02-01 12:22:00,28.0,-99.9,29.67,WNW,301,21.0,25.0,-999,-99.99,,,-99.99,,2013-02-01 17:22:00,
2013-02-01 12:30:00,28.0,-99.9,29.67,NW,313,26.0,37.0,-999,-99.99,,,-99.99,,2013-02-01 17:30:00,
2013-02-01 12:42:00,28.0,-99.9,29.67,NW,308,21.0,25.0,-999,-99.99,,,-99.99,,2013-02-01 17:42:00,
2013-02-01 12:53:00,28.0,-99.9,29.67,NW,308,21.0,25.0,-999,-99.99,,,-99.99,,2013-02-01 17:53:00,
2013-02-01 13:03:00,28.0,-99.9,29.67,NW,313,26.0,37.0,-999,-99.99,,,-99.99,,2013-02-01 18:03:00,
2013-02-01 13:13:00,28.0,-99.9,29.67,NW,313,26.0,37.0,-999,-99.99,,,-99.99,,2013-02-01 18:13:00,
2013-02-01 13:23:00,28.0,-99.9,29.67,NW,313,26.0,37.0,-999,-99.99,,,-99.99,,2013-02-01 18:23:00,
2013-02-01 13:30:00,27.0,-99.9,29.68,NW,306,28.0,38.0,-999,-99.99,,,-99.99,,2013-02-01 18:30:00,
2013-02-01 13:42:00,27.0,-99.9,29.68,NW,315,22.0,29.0,-999,-99.99,,,-99.99,,2013-02-01 18:42:00,
2013-02-01 13:53:00,27.0,-99.9,29.68,NW,315,22.0,29.0,-999,-99.99,,,-99.99,,2013-02-01 18:53:00,
2013-02-01 14:03:00,27.0,-99.9,29.68,NW,306,28.0,38.0,-999,-99.99,,,-99.99,,2013-02-01 19:03:00,
2013-02-01 14:12:00,27.0,-99.9,29.68,NW,306,28.0,38.0,-999,-99.99,,,-99.99,,2013-02-01 19:12:00,
2013-02-01 14:22:00,27.0,-99.9,29.68,NW,306,28.0,38.0,-999,-99.99,,,-99.99,,2013-02-01 19:22:00,
2013-02-01 14:30:00,27.0,-99.9,29.67,NW,320,30.0,41.0,-999,-99.99,,,-99.99,,2013-02-01 19:30:00,
2013-02-01 14:42:00,26.0,-99.9,29.68,NW,313,21.0,27.0,-999,-99.99,,,-99.99,,2013-02-01 19:42:00,
2013-02-01 14:52:00,26.0,-99.9,29.68,NW,313,21.0,27.0,-999,-99.99,,,-99.99,,2013-02-01 19:52:00,
2013-02-01 15:02:00,27.0,-99.9,29.67,NW,320,30.0,41.0,-999,-99.99,,,-99.99,,2013-02-01 20:02:00,
2013-02-01 15:12:00,27.0,-99.9,29.67,NW,320,30.0,41.0,-999,-99.99,,,-99.99,,2013-02-01 20:12:00,
2013-02-01 15:22:00,27.0,-99.9,29.67,NW,320,30.0,41.0,-999,-99.99,,,-99.99,,2013-02-01 20:22:00,
2013-02-01 15:30:00,26.0,-99.9,29.72,NW,310,19.0,24.0,-999,-99.99,,,-99.99,,2013-02-01 20:30:00,
2013-02-01 15:42:00,26.0,-99.9,29.69,NNW,334,21.0,26.0,-999,-99.99,,,-99.99,,2013-02-01 20:42:00,
2013-02-01 15:52:00,26.0,-99.9,29.69,NNW,334,21.0,26.0,-999,-99.99,,,-99.99,,2013-02-01 20:52:00,
2013-02-01 16:02:00,26.0,-99.9,29.72,NW,310,19.0,24.0,-999,-99.99,,,-99.99,,2013-02-01 21:02:00,
2013-02-01 16:12:00,26.0,-99.9,29.72,NW,310,19.0,24.0,-999,-99.99,,,-99.99,,2013-02-01 21:12:00,
2013-02-01 16:22:00,26.0,-99.9,29.72,NW,310,19.0,24.0,-999,-99.99,,,-99.99,,2013-02-01 21:22:00,
2013-02-01 16:30:00,26.0,-99.9,29.74,NW,312,19.0,25.0,-999,-99.99,,,-99.99,,2013-02-01 21:30:00,
2013-02-01 16:42:00,26.0,-99.9,29.73,WNW,298,19.0,24.0,-999,-99.99,,,-99.99,,2013-02-01 21:42:00,
2013-02-01 16:53:00,26.0,-99.9,29.73,WNW,298,19.0,24.0,-999,-99.99,,,-99.99,,2013-02-01 21:53:00,
2013-02-01 17:00:00,25.0,-99.9,29.77,NW,307,16.0,20.0,-999,-99.99,,,-99.99,,2013-02-01 22:00:00,
2013-02-01 17:03:00,26.0,-99.9,29.74,NW,312,19.0,25.0,-999,-99.99,,,-99.99,,2013-02-01 22:03:00,
2013-02-01 17:11:00,26.0,-99.9,29.74,NW,312,19.0,25.0,-999,-99.99,,,-99.99,,2013-02-01 22:11:00,
2013-02-01 17:22:00,26.0,-99.9,29.74,NW,312,19.0,25.0,-999,-99.99,,,-99.99,,2013-02-01 22:22:00,
2013-02-01 17:42:00,25.0,-99.9,29.77,NW,307,16.0,20.0,-999,-99.99,,,-99.99,,2013-02-01 22:42:00,
2013-02-01 17:52:00,25.0,-99.9,29.77,NW,307,16.0,20.0,-999,-99.99,,,-99.99,,2013-02-01 22:52:00,
2013-02-01 18:00:00,24.0,-99.9,29.82,NNW,334,16.0,21.0,-999,-99.99,,,-99.99,,2013-02-01 23:00:00,
2013-02-01 18:42:00,24.0,-99.9,29.82,NNW,334,16.0,21.0,-999,-99.99,,,-99.99,,2013-02-01 23:42:00,
2013-02-01 18:52:00,24.0,-99.9,29.82,NNW,334,16.0,21.0,-999,-99.99,,,-99.99,,2013-02-01 23:52:00,
2013-02-01 19:00:00,23.0,-99.9,29.87,NNW,333,18.0,22.0,-999,-99.99,,,-99.99,,2013-02-02 00:00:00,
2013-02-01 19:42:00,23.0,-99.9,29.87,NNW,333,18.0,22.0,-999,-99.99,,,-99.99,,2013-02-02 00:42:00,
2013-02-01 19:52:00,23.0,-99.9,29.87,NNW,333,18.0,22.0,-999,-99.99,,,-99.99,,2013-02-02 00:52:00,
2013-02-01 20:00:00,22.0,-99.9,29.90,NNW,335,17.0,23.0,-999,-99.99,,,-99.99,,2013-02-02 01:00:00,
2013-02-01 20:42:00,22.0,-99.9,29.90,NNW,335,17.0,23.0,-999,-99.99,,,-99.99,,2013-02-02 01:42:00,
2013-02-01 20:52:00,22.0,-99.9,29.90,NNW,335,17.0,23.0,-999,-99.99,,,-99.99,,2013-02-02 01:52:00,
2013-02-01 21:00:00,21.0,-99.9,29.92,NW,323,19.0,28.0,-999,-99.99,,,-99.99,,2013-02-02 02:00:00,
2013-02-01 21:42:00,21.0,-99.9,29.92,NW,323,19.0,28.0,-999,-99.99,,,-99.99,,2013-02-02 02:42:00,
2013-02-01 21:52:00,21.0,-99.9,29.92,NW,323,19.0,28.0,-999,-99.99,,,-99.99,,2013-02-02 02:52:00,
2013-02-01 22:30:00,20.0,-99.9,29.94,NNW,329,23.0,29.0,-999,-99.99,,,-99.99,,2013-02-02 03:30:00,
2013-02-01 22:42:00,20.0,-99.9,29.94,NW,323,21.0,30.0,-999,-99.99,,,-99.99,,2013-02-02 03:42:00,
2013-02-01 22:52:00,20.0,-99.9,29.94,NW,323,21.0,30.0,-999,-99.99,,,-99.99,,2013-02-02 03:52:00,
2013-02-01 23:02:00,20.0,-99.9,29.94,NNW,329,23.0,29.0,-999,-99.99,,,-99.99,,2013-02-02 04:02:00,
2013-02-01 23:11:00,20.0,-99.9,29.94,NNW,329,23.0,29.0,-999,-99.99,,,-99.99,,2013-02-02 04:11:00,
2013-02-01 23:22:00,20.0,-99.9,29.94,NNW,329,23.0,29.0,-999,-99.99,,,-99.99,,2013-02-02 04:22:00,
2013-02-01 23:30:00,19.0,-99.9,29.97,NW,321,17.0,31.0,-999,-99.99,,,-99.99,,2013-02-02 04:30:00,
2013-02-01 23:42:00,19.0,-99.9,29.96,NW,321,20.0,30.0,-999,-99.99,,,-99.99,,2013-02-02 04:42:00,
2013-02-01 23:52:00,19.0,-99.9,29.96,NW,321,20.0,30.0,-999,-99.99,,,-99.99,,2013-02-02 04:52:00,